Time,TemperatureF,DewpointF,PressureIn,WindDirection,WindDirectionDegrees,WindSpeedMPH,WindSpeedGustMPH,Humidity,HourlyPrecipIn,Conditions,Clouds,dailyrainin,SoftwareType,DateUTC
2013-01-08 00:00:00,27.7,22.9,30.00,SSW,203,5.4,5.4,82,0.00,,,0.00,WUHU216HW,2013-01-08 05:00:00,
2013-01-08 00:01:00,27.7,22.9,30.00,SSW,203,5.4,5.4,82,0.00,,,0.00,WUHU216HW,2013-01-08 05:01:00,
2013-01-08 00:06:00,28.1,23.0,30.00,West,270,3.6,5.4,81,0.00,,,0.00,WUHU216HW,2013-01-08 05:06:00,
2013-01-08 00:11:00,27.9,22.8,30.01,SW,225,2.5,5.4,81,0.00,,,0.00,WUHU216HW,2013-01-08 05:11:00,
2013-01-08 00:16:00,27.7,22.6,30.01,SSW,203,4.0,6.3,81,0.00,,,0.00,WUHU216HW,2013-01-08 05:16:00,
2013-01-08 00:21:00,27.5,22.4,30.01,WSW,248,4.0,6.3,81,0.00,,,0.00,WUHU216HW,2013-01-08 05:21:00,
2013-01-08 00:26:00,27.4,22.2,30.00,SW,225,3.6,5.4,81,0.00,,,0.00,WUHU216HW,2013-01-08 05:26:00,
2013-01-08 00:31:00,27.2,22.1,30.00,SSW,203,2.0,6.0,81,0.00,,,0.00,WUHU216HW,2013-01-08 05:31:00,
2013-01-08 00:36:00,27.4,22.5,30.00,SSW,203,2.0,6.0,82,0.00,,,0.00,WUHU216HW,2013-01-08 05:36:00,
2013-01-08 00:41:00,27.4,22.5,30.00,WSW,248,3.6,6.0,82,0.00,,,0.00,WUHU216HW,2013-01-08 05:41:00,
2013-01-08 00:46:00,27.2,22.3,30.01,WSW,248,6.0,6.0,82,0.00,,,0.00,WUHU216HW,2013-01-08 05:46:00,
2013-01-08 00:51:00,27.2,22.1,30.00,WSW,248,4.7,6.0,81,0.00,,,0.00,WUHU216HW,2013-01-08 05:51:00,
2013-01-08 00:56:00,27.2,22.3,30.01,SW,225,3.4,4.7,82,0.00,,,0.00,WUHU216HW,2013-01-08 05:56:00,
2013-01-08 01:01:00,27.2,22.3,30.00,SW,225,2.9,5.4,82,0.00,,,0.00,WUHU216HW,2013-01-08 06:01:00,
2013-01-08 01:06:00,27.0,22.1,30.01,WSW,248,2.7,5.4,82,0.00,,,0.00,WUHU216HW,2013-01-08 06:06:00,
2013-01-08 01:11:00,27.2,22.3,30.01,West,270,3.6,5.4,82,0.00,,,0.00,WUHU216HW,2013-01-08 06:11:00,
2013-01-08 01:16:00,27.2,22.3,30.01,WSW,248,3.1,5.8,82,0.00,,,0.00,WUHU216HW,2013-01-08 06:16:00,
2013-01-08 01:21:00,27.2,22.3,30.01,South,180,4.7,7.8,82,0.00,,,0.00,WUHU216HW,2013-01-08 06:21:00,
2013-01-08 01:26:00,27.2,22.3,30.01,SW,225,5.6,7.8,82,0.00,,,0.00,WUHU216HW,2013-01-08 06:26:00,
2013-01-08 01:31:00,27.2,22.3,30.01,SSW,203,6.0,6.0,82,0.00,,,0.00,WUHU216HW,2013-01-08 06:31:00,
2013-01-08 01:36:00,27.2,22.3,30.01,SW,225,6.3,6.5,82,0.00,,,0.00,WUHU216HW,2013-01-08 06:36:00,
2013-01-08 01:41:00,27.0,22.1,30.01,South,180,1.8,6.5,82,0.00,,,0.00,WUHU216HW,2013-01-08 06:41:00,
2013-01-08 01:46:00,27.0,22.1,30.01,South,180,1.3,4.0,82,0.00,,,0.00,WUHU216HW,2013-01-08 06:46:00,
2013-01-08 01:51:00,27.0,22.1,30.02,WSW,248,1.8,6.3,82,0.00,,,0.00,WUHU216HW,2013-01-08 06:51:00,
2013-01-08 01:56:00,26.8,22.0,30.02,West,270,3.6,6.3,82,0.00,,,0.00,WUHU216HW,2013-01-08 06:56:00,
2013-01-08 02:01:00,26.6,21.8,30.02,WSW,248,2.7,3.6,82,0.00,,,0.00,WUHU216HW,2013-01-08 07:01:00,
2013-01-08 02:06:00,26.5,21.7,30.02,SW,225,4.3,4.7,82,0.00,,,0.00,WUHU216HW,2013-01-08 07:06:00,
2013-01-08 02:11:00,26.5,22.0,30.02,SW,225,1.6,4.7,83,0.00,,,0.00,WUHU216HW,2013-01-08 07:11:00,
2013-01-08 02:16:00,26.3,21.5,30.02,WSW,248,1.1,3.1,82,0.00,,,0.00,WUHU216HW,2013-01-08 07:16:00,
2013-01-08 02:21:00,26.3,21.8,30.02,WSW,248,1.3,2.7,83,0.00,,,0.00,WUHU216HW,2013-01-08 07:21:00,
2013-01-08 02:26:00,26.1,21.6,30.02,West,270,1.6,2.9,83,0.00,,,0.00,WUHU216HW,2013-01-08 07:26:00,
2013-01-08 02:31:00,25.9,20.9,30.03,SSW,203,1.8,2.9,81,0.00,,,0.00,WUHU216HW,2013-01-08 07:31:00,
2013-01-08 02:36:00,25.7,21.0,30.03,SW,225,3.4,3.4,82,0.00,,,0.00,WUHU216HW,2013-01-08 07:36:00,
2013-01-08 02:41:00,25.6,20.8,30.03,WSW,248,1.1,3.4,82,0.00,,,0.00,WUHU216HW,2013-01-08 07:41:00,
2013-01-08 02:46:00,25.6,20.8,30.03,WNW,293,1.1,2.5,82,0.00,,,0.00,WUHU216HW,2013-01-08 07:46:00,
2013-01-08 02:51:00,25.4,20.7,30.03,WSW,248,0.4,2.5,82,0.00,,,0.00,WUHU216HW,2013-01-08 07:51:00,
2013-01-08 02:56:00,25.4,20.7,30.03,SSW,203,1.1,2.5,82,0.00,,,0.00,WUHU216HW,2013-01-08 07:56:00,
2013-01-08 03:01:00,25.2,20.5,30.03,WSW,248,0.4,1.1,82,0.00,,,0.00,WUHU216HW,2013-01-08 08:01:00,
2013-01-08 03:06:00,24.8,20.2,30.03,WSW,248,2.0,2.0,82,0.00,,,0.00,WUHU216HW,2013-01-08 08:06:00,
2013-01-08 03:11:00,24.8,20.2,30.03,SW,225,0.4,3.1,82,0.00,,,0.00,WUHU216HW,2013-01-08 08:11:00,
2013-01-08 03:16:00,24.7,20.0,30.03,SSW,203,0.2,3.1,82,0.00,,,0.00,WUHU216HW,2013-01-08 08:16:00,
2013-01-08 03:21:00,24.5,19.8,30.03,SW,225,1.1,2.9,82,0.00,,,0.00,WUHU216HW,2013-01-08 08:21:00,
2013-01-08 03:26:00,24.5,20.1,30.03,WSW,248,1.8,2.9,83,0.00,,,0.00,WUHU216HW,2013-01-08 08:26:00,
2013-01-08 03:31:00,24.5,20.1,30.03,WSW,248,0.2,3.8,83,0.00,,,0.00,WUHU216HW,2013-01-08 08:31:00,
2013-01-08 03:36:00,24.5,20.1,30.03,SSE,158,1.6,3.8,83,0.00,,,0.00,WUHU216HW,2013-01-08 08:36:00,
2013-01-08 03:41:00,24.5,20.1,30.03,SW,225,1.1,2.9,83,0.00,,,0.00,WUHU216HW,2013-01-08 08:41:00,
2013-01-08 03:46:00,24.3,19.9,30.03,SSW,203,1.1,3.4,83,0.00,,,0.00,WUHU216HW,2013-01-08 08:46:00,
2013-01-08 03:51:00,24.3,19.9,30.03,SW,225,2.2,3.4,83,0.00,,,0.00,WUHU216HW,2013-01-08 08:51:00,
2013-01-08 03:56:00,24.3,19.9,30.02,South,180,2.7,3.1,83,0.00,,,0.00,WUHU216HW,2013-01-08 08:56:00,
2013-01-08 04:01:00,24.1,19.7,30.02,WSW,248,1.6,3.1,83,0.00,,,0.00,WUHU216HW,2013-01-08 09:01:00,
2013-01-08 04:06:00,24.3,20.2,30.02,WSW,248,2.2,2.5,84,0.00,,,0.00,WUHU216HW,2013-01-08 09:06:00,
2013-01-08 04:11:00,24.3,20.2,30.02,WSW,248,1.3,2.5,84,0.00,,,0.00,WUHU216HW,2013-01-08 09:11:00,
2013-01-08 04:15:00,24.3,20.2,30.02,SW,225,1.1,3.6,84,0.00,,,0.00,WUHU216HW,2013-01-08 09:15:00,
2013-01-08 04:20:00,24.1,20.0,30.02,WSW,248,1.1,3.6,84,0.00,,,0.00,WUHU216HW,2013-01-08 09:20:00,
2013-01-08 04:25:00,24.1,20.0,30.02,SSW,203,2.0,3.6,84,0.00,,,0.00,WUHU216HW,2013-01-08 09:25:00,
2013-01-08 04:30:00,24.1,20.0,30.03,SSW,203,0.9,2.0,84,0.00,,,0.00,WUHU216HW,2013-01-08 09:30:00,
2013-01-08 04:35:00,24.1,20.0,30.03,SW,225,1.8,3.1,84,0.00,,,0.00,WUHU216HW,2013-01-08 09:35:00,
2013-01-08 04:40:00,24.1,20.0,30.03,WSW,248,0.7,3.1,84,0.00,,,0.00,WUHU216HW,2013-01-08 09:40:00,
2013-01-08 04:45:00,23.9,19.8,30.02,SW,225,2.7,2.7,84,0.00,,,0.00,WUHU216HW,2013-01-08 09:45:00,
2013-01-08 04:50:00,24.1,20.0,30.02,WSW,248,1.3,2.7,84,0.00,,,0.00,WUHU216HW,2013-01-08 09:50:00,
2013-01-08 04:55:00,24.1,20.0,30.02,WSW,248,2.5,2.5,84,0.00,,,0.00,WUHU216HW,2013-01-08 09:55:00,
2013-01-08 05:00:00,24.1,20.0,30.02,WSW,248,3.4,3.4,84,0.00,,,0.00,WUHU216HW,2013-01-08 10:00:00,
2013-01-08 05:05:00,24.1,20.0,30.02,West,270,1.3,3.4,84,0.00,,,0.00,WUHU216HW,2013-01-08 10:05:00,
2013-01-08 05:10:00,24.1,20.3,30.02,WSW,248,1.8,2.9,85,0.00,,,0.00,WUHU216HW,2013-01-08 10:10:00,
2013-01-08 05:15:00,24.1,20.3,30.02,SW,225,1.1,3.1,85,0.00,,,0.00,WUHU216HW,2013-01-08 10:15:00,
2013-01-08 05:20:00,24.1,20.0,30.02,SW,225,2.5,3.1,84,0.00,,,0.00,WUHU216HW,2013-01-08 10:20:00,
2013-01-08 05:25:00,24.1,20.3,30.02,West,270,2.7,4.0,85,0.00,,,0.00,WUHU216HW,2013-01-08 10:25:00,
2013-01-08 05:30:00,24.1,20.3,30.03,SSW,203,1.1,4.0,85,0.00,,,0.00,WUHU216HW,2013-01-08 10:30:00,
2013-01-08 05:35:00,24.1,20.3,30.03,West,270,0.7,3.4,85,0.00,,,0.00,WUHU216HW,2013-01-08 10:35:00,
2013-01-08 05:40:00,23.9,20.1,30.03,WSW,248,0.7,2.0,85,0.00,,,0.00,WUHU216HW,2013-01-08 10:40:00,
2013-01-08 05:45:00,23.9,20.1,30.03,West,270,0.4,2.7,85,0.00,,,0.00,WUHU216HW,2013-01-08 10:45:00,
2013-01-08 05:50:00,23.8,19.9,30.03,WSW,248,1.3,2.7,85,0.00,,,0.00,WUHU216HW,2013-01-08 10:50:00,
2013-01-08 05:55:00,23.6,19.7,30.02,SW,225,0.4,1.6,85,0.00,,,0.00,WUHU216HW,2013-01-08 10:55:00,
2013-01-08 06:00:00,23.4,19.5,30.03,WSW,248,2.0,2.7,85,0.00,,,0.00,WUHU216HW,2013-01-08 11:00:00,
2013-01-08 06:05:00,23.6,19.7,30.03,SW,225,1.1,2.7,85,0.00,,,0.00,WUHU216HW,2013-01-08 11:05:00,
2013-01-08 06:10:00,23.6,19.7,30.03,SW,225,1.8,2.2,85,0.00,,,0.00,WUHU216HW,2013-01-08 11:10:00,
2013-01-08 06:15:00,23.4,19.5,30.03,WSW,248,2.5,2.5,85,0.00,,,0.00,WUHU216HW,2013-01-08 11:15:00,
2013-01-08 06:20:00,23.4,19.5,30.03,SW,225,2.2,2.5,85,0.00,,,0.00,WUHU216HW,2013-01-08 11:20:00,
2013-01-08 06:25:00,23.6,19.7,30.03,SSW,203,1.1,2.2,85,0.00,,,0.00,WUHU216HW,2013-01-08 11:25:00,
2013-01-08 06:30:00,23.6,19.7,30.03,WSW,248,3.6,3.6,85,0.00,,,0.00,WUHU216HW,2013-01-08 11:30:00,
2013-01-08 06:35:00,23.8,19.9,30.03,SW,225,2.5,4.3,85,0.00,,,0.00,WUHU216HW,2013-01-08 11:35:00,
2013-01-08 06:40:00,23.9,20.1,30.03,West,270,4.3,4.3,85,0.00,,,0.00,WUHU216HW,2013-01-08 11:40:00,
2013-01-08 06:45:00,24.1,20.3,30.03,WSW,248,1.1,4.3,85,0.00,,,0.00,WUHU216HW,2013-01-08 11:45:00,
2013-01-08 06:50:00,24.1,20.3,30.03,SSE,158,0.9,3.6,85,0.00,,,0.00,WUHU216HW,2013-01-08 11:50:00,
2013-01-08 06:55:00,24.1,20.3,30.03,WSW,248,1.8,2.7,85,0.00,,,0.00,WUHU216HW,2013-01-08 11:55:00,
2013-01-08 07:00:00,24.1,20.3,30.03,SW,225,2.0,5.4,85,0.00,,,0.00,WUHU216HW,2013-01-08 12:00:00,
2013-01-08 07:05:00,24.1,20.3,30.04,SW,225,1.3,5.4,85,0.00,,,0.00,WUHU216HW,2013-01-08 12:05:00,
2013-01-08 07:10:00,24.3,20.4,30.04,WSW,248,1.1,3.4,85,0.00,,,0.00,WUHU216HW,2013-01-08 12:10:00,
2013-01-08 07:15:00,24.5,20.6,30.04,West,270,4.7,4.7,85,0.00,,,0.00,WUHU216HW,2013-01-08 12:15:00,
2013-01-08 07:20:00,24.5,20.6,30.04,NW,315,2.9,4.7,85,0.00,,,0.00,WUHU216HW,2013-01-08 12:20:00,
2013-01-08 07:25:00,24.7,20.8,30.05,SW,225,4.3,5.6,85,0.00,,,0.00,WUHU216HW,2013-01-08 12:25:00,
2013-01-08 07:30:00,24.7,20.8,30.05,SW,225,2.9,5.6,85,0.00,,,0.00,WUHU216HW,2013-01-08 12:30:00,
2013-01-08 07:35:00,24.7,20.8,30.05,South,180,1.1,4.5,85,0.00,,,0.00,WUHU216HW,2013-01-08 12:35:00,
2013-01-08 07:40:00,24.7,20.8,30.05,SW,225,1.8,4.5,85,0.00,,,0.00,WUHU216HW,2013-01-08 12:40:00,
2013-01-08 07:45:00,24.7,20.8,30.05,SW,225,2.7,4.7,85,0.00,,,0.00,WUHU216HW,2013-01-08 12:45:00,
2013-01-08 07:50:00,24.8,21.0,30.05,SSW,203,1.8,4.7,85,0.00,,,0.00,WUHU216HW,2013-01-08 12:50:00,
2013-01-08 07:55:00,24.8,21.0,30.05,SW,225,2.0,4.0,85,0.00,,,0.00,WUHU216HW,2013-01-08 12:55:00,
2013-01-08 08:00:00,24.8,21.0,30.05,SW,225,3.4,3.8,85,0.00,,,0.00,WUHU216HW,2013-01-08 13:00:00,
2013-01-08 08:05:00,24.8,21.0,30.05,SSW,203,1.6,4.9,85,0.00,,,0.00,WUHU216HW,2013-01-08 13:05:00,
2013-01-08 08:10:00,24.8,21.0,30.05,WSW,248,1.8,4.9,85,0.00,,,0.00,WUHU216HW,2013-01-08 13:10:00,
2013-01-08 08:15:00,24.8,21.0,30.06,West,270,2.5,3.4,85,0.00,,,0.00,WUHU216HW,2013-01-08 13:15:00,
2013-01-08 08:20:00,25.0,21.2,30.06,SSW,203,1.6,3.1,85,0.00,,,0.00,WUHU216HW,2013-01-08 13:20:00,
2013-01-08 08:25:00,25.0,21.2,30.06,South,180,3.1,3.1,85,0.00,,,0.00,WUHU216HW,2013-01-08 13:25:00,
2013-01-08 08:30:00,25.2,21.1,30.06,SW,225,2.5,3.1,84,0.00,,,0.00,WUHU216HW,2013-01-08 13:30:00,
2013-01-08 08:35:00,25.4,21.5,30.06,WSW,248,3.4,3.4,85,0.00,,,0.00,WUHU216HW,2013-01-08 13:35:00,
2013-01-08 08:40:00,25.7,21.9,30.07,SW,225,1.6,3.8,85,0.00,,,0.00,WUHU216HW,2013-01-08 13:40:00,
2013-01-08 08:45:00,26.3,22.1,30.07,WSW,248,1.8,4.0,84,0.00,,,0.00,WUHU216HW,2013-01-08 13:45:00,
2013-01-08 08:50:00,26.6,22.4,30.07,SSW,203,2.2,4.0,84,0.00,,,0.00,WUHU216HW,2013-01-08 13:50:00,
2013-01-08 08:55:00,27.0,22.8,30.07,SW,225,0.9,3.4,84,0.00,,,0.00,WUHU216HW,2013-01-08 13:55:00,
2013-01-08 09:00:00,27.4,23.1,30.07,South,180,1.8,3.4,84,0.00,,,0.00,WUHU216HW,2013-01-08 14:00:00,
2013-01-08 09:05:00,27.7,23.5,30.07,WSW,248,2.7,2.7,84,0.00,,,0.00,WUHU216HW,2013-01-08 14:05:00,
2013-01-08 09:10:00,28.4,24.0,30.08,SSW,203,0.9,3.1,83,0.00,,,0.00,WUHU216HW,2013-01-08 14:10:00,
2013-01-08 09:15:00,28.8,24.3,30.08,WSW,248,1.8,3.1,83,0.00,,,0.00,WUHU216HW,2013-01-08 14:15:00,
2013-01-08 09:20:00,29.0,24.5,30.07,WSW,248,1.1,2.5,83,0.00,,,0.00,WUHU216HW,2013-01-08 14:20:00,
2013-01-08 09:25:00,29.2,24.7,30.07,SSW,203,4.7,4.7,83,0.00,,,0.00,WUHU216HW,2013-01-08 14:25:00,
2013-01-08 09:30:00,29.5,24.7,30.07,WSW,248,3.8,4.7,82,0.00,,,0.00,WUHU216HW,2013-01-08 14:30:00,
2013-01-08 09:35:00,29.9,25.0,30.08,SW,225,1.8,3.8,82,0.00,,,0.00,WUHU216HW,2013-01-08 14:35:00,
2013-01-08 09:40:00,30.4,25.3,30.08,WSW,248,2.9,4.7,81,0.00,,,0.00,WUHU216HW,2013-01-08 14:40:00,
2013-01-08 09:45:00,30.8,25.7,30.08,SSW,203,1.8,5.4,81,0.00,,,0.00,WUHU216HW,2013-01-08 14:45:00,
2013-01-08 09:50:00,31.3,26.2,30.08,SSW,203,3.4,6.0,81,0.00,,,0.00,WUHU216HW,2013-01-08 14:50:00,
2013-01-08 09:55:00,31.7,25.9,30.08,West,270,2.5,6.0,79,0.00,,,0.00,WUHU216HW,2013-01-08 14:55:00,
2013-01-08 10:00:00,32.0,26.6,30.08,South,180,2.7,4.5,80,0.00,,,0.00,WUHU216HW,2013-01-08 15:00:00,
2013-01-08 10:05:00,32.4,26.6,30.08,SW,225,1.8,5.4,79,0.00,,,0.00,WUHU216HW,2013-01-08 15:05:00,
2013-01-08 10:10:00,32.8,27.0,30.09,WSW,248,3.1,5.4,79,0.00,,,0.00,WUHU216HW,2013-01-08 15:10:00,
2013-01-08 10:15:00,32.9,26.5,30.08,SW,225,2.7,4.9,77,0.00,,,0.00,WUHU216HW,2013-01-08 15:15:00,
2013-01-08 10:20:00,32.9,26.5,30.08,SW,225,6.0,6.5,77,0.00,,,0.00,WUHU216HW,2013-01-08 15:20:00,
2013-01-08 10:25:00,32.8,26.0,30.08,West,270,4.3,6.7,76,0.00,,,0.00,WUHU216HW,2013-01-08 15:25:00,
2013-01-08 10:30:00,33.1,26.3,30.09,South,180,1.6,6.7,76,0.00,,,0.00,WUHU216HW,2013-01-08 15:30:00,
2013-01-08 10:35:00,33.8,27.3,30.09,WSW,248,1.6,3.4,77,0.00,,,0.00,WUHU216HW,2013-01-08 15:35:00,
2013-01-08 10:40:00,34.4,26.6,30.09,WSW,248,2.9,3.4,73,0.00,,,0.00,WUHU216HW,2013-01-08 15:40:00,
2013-01-08 10:45:00,34.6,26.7,30.09,SW,225,1.8,4.7,73,0.00,,,0.00,WUHU216HW,2013-01-08 15:45:00,
2013-01-08 10:50:00,34.7,26.9,30.09,West,270,2.7,5.4,73,0.00,,,0.00,WUHU216HW,2013-01-08 15:50:00,
2013-01-08 10:55:00,35.1,27.3,30.09,SSW,203,3.6,5.4,73,0.00,,,0.00,WUHU216HW,2013-01-08 15:55:00,
2013-01-08 11:00:00,35.5,27.0,30.09,WSW,248,3.6,5.4,71,0.00,,,0.00,WUHU216HW,2013-01-08 16:00:00,
2013-01-08 11:05:00,35.6,27.5,30.09,SSW,203,3.4,4.7,72,0.00,,,0.00,WUHU216HW,2013-01-08 16:05:00,
2013-01-08 11:10:00,36.0,27.8,30.09,SSW,203,5.6,5.6,72,0.00,,,0.00,WUHU216HW,2013-01-08 16:10:00,
2013-01-08 11:15:00,36.2,27.4,30.10,South,180,2.2,5.6,70,0.00,,,0.00,WUHU216HW,2013-01-08 16:15:00,
2013-01-08 11:20:00,36.0,27.2,30.10,SSW,203,4.7,5.1,70,0.00,,,0.00,WUHU216HW,2013-01-08 16:20:00,
2013-01-08 11:25:00,36.5,28.1,30.10,WSW,248,2.0,5.8,71,0.00,,,0.00,WUHU216HW,2013-01-08 16:25:00,
2013-01-08 11:30:00,36.9,28.5,30.09,SSW,203,5.4,5.8,71,0.00,,,0.00,WUHU216HW,2013-01-08 16:30:00,
2013-01-08 11:35:00,37.3,28.8,30.09,SSW,203,5.4,5.4,71,0.00,,,0.00,WUHU216HW,2013-01-08 16:35:00,
2013-01-08 11:40:00,37.4,29.0,30.09,WSW,248,3.1,5.4,71,0.00,,,0.00,WUHU216HW,2013-01-08 16:40:00,
2013-01-08 11:45:00,37.8,29.0,30.08,WSW,248,2.7,4.0,70,0.00,,,0.00,WUHU216HW,2013-01-08 16:45:00,
2013-01-08 11:50:00,37.8,29.0,30.09,SW,225,2.5,4.9,70,0.00,,,0.00,WUHU216HW,2013-01-08 16:50:00,
2013-01-08 11:55:00,38.2,29.3,30.09,SW,225,4.7,4.9,70,0.00,,,0.00,WUHU216HW,2013-01-08 16:55:00,
2013-01-08 12:00:00,38.5,29.3,30.08,SSW,203,1.1,4.7,69,0.00,,,0.00,WUHU216HW,2013-01-08 17:00:00,
2013-01-08 12:05:00,39.4,30.1,30.08,SE,135,2.2,3.8,69,0.00,,,0.00,WUHU216HW,2013-01-08 17:05:00,
2013-01-08 12:10:00,39.8,30.1,30.07,South,180,1.6,5.6,68,0.00,,,0.00,WUHU216HW,2013-01-08 17:10:00,
2013-01-08 12:15:00,40.0,29.8,30.07,WSW,248,3.1,5.6,67,0.00,,,0.00,WUHU216HW,2013-01-08 17:15:00,
2013-01-08 12:20:00,39.6,28.7,30.07,WSW,248,1.8,4.0,65,0.00,,,0.00,WUHU216HW,2013-01-08 17:20:00,
2013-01-08 12:25:00,39.6,29.1,30.07,WSW,248,1.1,4.0,66,0.00,,,0.00,WUHU216HW,2013-01-08 17:25:00,
2013-01-08 12:30:00,39.8,29.6,30.07,WSW,248,1.1,4.0,67,0.00,,,0.00,WUHU216HW,2013-01-08 17:30:00,
2013-01-08 12:35:00,40.1,30.0,30.07,WSW,248,0.9,2.9,67,0.00,,,0.00,WUHU216HW,2013-01-08 17:35:00,
2013-01-08 12:40:00,40.1,29.6,30.06,South,180,2.7,4.0,66,0.00,,,0.00,WUHU216HW,2013-01-08 17:40:00,
2013-01-08 12:45:00,40.1,30.0,30.05,SSE,158,3.4,4.0,67,0.00,,,0.00,WUHU216HW,2013-01-08 17:45:00,
2013-01-08 12:50:00,40.5,29.6,30.05,SW,225,0.9,4.5,65,0.00,,,0.00,WUHU216HW,2013-01-08 17:50:00,
2013-01-08 12:55:00,40.7,30.2,30.05,SW,225,2.2,4.5,66,0.00,,,0.00,WUHU216HW,2013-01-08 17:55:00,
2013-01-08 13:00:00,41.2,30.7,30.05,WSW,248,2.5,4.0,66,0.00,,,0.00,WUHU216HW,2013-01-08 18:00:00,
2013-01-08 13:05:00,41.4,30.5,30.05,WSW,248,1.1,3.1,65,0.00,,,0.00,WUHU216HW,2013-01-08 18:05:00,
2013-01-08 13:10:00,42.1,31.1,30.05,South,180,1.1,2.5,65,0.00,,,0.00,WUHU216HW,2013-01-08 18:10:00,
2013-01-08 13:15:00,42.5,31.5,30.05,South,180,4.0,4.0,65,0.00,,,0.00,WUHU216HW,2013-01-08 18:15:00,
2013-01-08 13:20:00,42.8,31.5,30.05,SSE,158,2.7,4.0,64,0.00,,,0.00,WUHU216HW,2013-01-08 18:20:00,
2013-01-08 13:25:00,42.8,31.1,30.04,SSW,203,2.0,2.7,63,0.00,,,0.00,WUHU216HW,2013-01-08 18:25:00,
2013-01-08 13:30:00,43.0,31.2,30.04,SSE,158,2.5,3.4,63,0.00,,,0.00,WUHU216HW,2013-01-08 18:30:00,
2013-01-08 13:35:00,42.8,31.1,30.04,SSW,203,2.2,3.4,63,0.00,,,0.00,WUHU216HW,2013-01-08 18:35:00,
2013-01-08 13:40:00,43.0,31.2,30.04,SW,225,2.7,3.4,63,0.00,,,0.00,WUHU216HW,2013-01-08 18:40:00,
2013-01-08 13:45:00,42.8,30.7,30.04,SW,225,2.0,3.4,62,0.00,,,0.00,WUHU216HW,2013-01-08 18:45:00,
2013-01-08 13:50:00,42.5,30.7,30.04,SSE,158,4.0,4.0,63,0.00,,,0.00,WUHU216HW,2013-01-08 18:50:00,
2013-01-08 13:55:00,42.3,30.2,30.04,SSE,158,1.3,4.0,62,0.00,,,0.00,WUHU216HW,2013-01-08 18:55:00,
2013-01-08 14:00:00,41.9,29.9,30.05,West,270,1.8,3.8,62,0.00,,,0.00,WUHU216HW,2013-01-08 19:00:00,
2013-01-08 14:05:00,42.1,29.6,30.05,SSE,158,4.7,4.7,61,0.00,,,0.00,WUHU216HW,2013-01-08 19:05:00,
2013-01-08 14:10:00,41.9,30.3,30.05,SSW,203,2.2,4.7,63,0.00,,,0.00,WUHU216HW,2013-01-08 19:10:00,
2013-01-08 14:15:00,42.1,30.4,30.04,SSE,158,3.1,4.0,63,0.00,,,0.00,WUHU216HW,2013-01-08 19:15:00,
2013-01-08 14:20:00,41.9,30.3,30.05,South,180,2.5,3.8,63,0.00,,,0.00,WUHU216HW,2013-01-08 19:20:00,
2013-01-08 14:25:00,41.6,29.9,30.05,SW,225,0.0,3.6,63,0.00,,,0.00,WUHU216HW,2013-01-08 19:25:00,
2013-01-08 14:30:00,41.8,30.1,30.05,SSE,158,2.7,3.6,63,0.00,,,0.00,WUHU216HW,2013-01-08 19:30:00,
2013-01-08 14:35:00,41.4,29.7,30.05,South,180,1.8,2.9,63,0.00,,,0.00,WUHU216HW,2013-01-08 19:35:00,
2013-01-08 14:40:00,41.4,29.7,30.05,SE,135,1.6,4.0,63,0.00,,,0.00,WUHU216HW,2013-01-08 19:40:00,
2013-01-08 14:45:00,41.4,29.7,30.05,WSW,248,4.0,4.7,63,0.00,,,0.00,WUHU216HW,2013-01-08 19:45:00,
2013-01-08 14:50:00,41.0,29.4,30.05,WSW,248,1.1,5.4,63,0.00,,,0.00,WUHU216HW,2013-01-08 19:50:00,
2013-01-08 14:55:00,41.0,29.4,30.05,SE,135,4.0,5.4,63,0.00,,,0.00,WUHU216HW,2013-01-08 19:55:00,
2013-01-08 15:00:00,41.0,29.4,30.06,WSW,248,2.7,5.1,63,0.00,,,0.00,WUHU216HW,2013-01-08 20:00:00,
2013-01-08 15:05:00,40.7,29.1,30.05,SSW,203,2.0,5.1,63,0.00,,,0.00,WUHU216HW,2013-01-08 20:05:00,
2013-01-08 15:10:00,40.9,29.3,30.05,SW,225,4.7,4.7,63,0.00,,,0.00,WUHU216HW,2013-01-08 20:10:00,
2013-01-08 15:15:00,40.9,29.6,30.05,SW,225,1.8,4.7,64,0.00,,,0.00,WUHU216HW,2013-01-08 20:15:00,
2013-01-08 15:20:00,40.7,29.1,30.06,SSW,203,1.8,4.5,63,0.00,,,0.00,WUHU216HW,2013-01-08 20:20:00,
2013-01-08 15:24:00,40.3,28.7,30.05,WSW,248,3.4,4.0,63,0.00,,,0.00,WUHU216HW,2013-01-08 20:24:00,
2013-01-08 15:29:00,40.1,28.9,30.06,WSW,248,6.3,6.3,64,0.00,,,0.00,WUHU216HW,2013-01-08 20:29:00,
2013-01-08 15:34:00,40.0,28.4,30.06,South,180,1.3,6.3,63,0.00,,,0.00,WUHU216HW,2013-01-08 20:34:00,
2013-01-08 15:39:00,39.8,28.2,30.06,SE,135,1.6,4.5,63,0.00,,,0.00,WUHU216HW,2013-01-08 20:39:00,
2013-01-08 15:44:00,39.6,28.0,30.06,WSW,248,1.8,4.9,63,0.00,,,0.00,WUHU216HW,2013-01-08 20:44:00,
2013-01-08 15:49:00,39.4,28.2,30.06,ESE,113,3.8,5.6,64,0.00,,,0.00,WUHU216HW,2013-01-08 20:49:00,
2013-01-08 15:54:00,39.1,27.8,30.06,SW,225,3.8,5.6,64,0.00,,,0.00,WUHU216HW,2013-01-08 20:54:00,
2013-01-08 15:59:00,38.9,27.6,30.06,SW,225,1.8,5.6,64,0.00,,,0.00,WUHU216HW,2013-01-08 20:59:00,
2013-01-08 16:04:00,38.9,28.0,30.06,South,180,2.5,5.6,65,0.00,,,0.00,WUHU216HW,2013-01-08 21:04:00,
2013-01-08 16:09:00,38.9,28.0,30.06,WSW,248,2.2,4.3,65,0.00,,,0.00,WUHU216HW,2013-01-08 21:09:00,
2013-01-08 16:14:00,39.1,28.2,30.05,SSW,203,3.4,4.7,65,0.00,,,0.00,WUHU216HW,2013-01-08 21:14:00,
2013-01-08 16:19:00,39.1,28.2,30.05,WSW,248,2.5,4.7,65,0.00,,,0.00,WUHU216HW,2013-01-08 21:19:00,
2013-01-08 16:24:00,39.2,28.4,30.05,WSW,248,1.8,3.4,65,0.00,,,0.00,WUHU216HW,2013-01-08 21:24:00,
2013-01-08 16:29:00,39.1,28.2,30.06,South,180,3.8,4.0,65,0.00,,,0.00,WUHU216HW,2013-01-08 21:29:00,
2013-01-08 16:34:00,38.9,28.0,30.06,WSW,248,2.5,5.1,65,0.00,,,0.00,WUHU216HW,2013-01-08 21:34:00,
2013-01-08 16:39:00,38.7,28.3,30.06,WSW,248,5.8,5.8,66,0.00,,,0.00,WUHU216HW,2013-01-08 21:39:00,
2013-01-08 16:44:00,38.5,28.1,30.06,WSW,248,2.9,6.3,66,0.00,,,0.00,WUHU216HW,2013-01-08 21:44:00,
2013-01-08 16:49:00,38.3,27.9,30.06,WSW,248,2.0,6.3,66,0.00,,,0.00,WUHU216HW,2013-01-08 21:49:00,
2013-01-08 16:54:00,38.2,28.2,30.06,NNW,338,2.5,3.4,67,0.00,,,0.00,WUHU216HW,2013-01-08 21:54:00,
2013-01-08 16:59:00,37.8,27.8,30.06,SW,225,1.8,4.5,67,0.00,,,0.00,WUHU216HW,2013-01-08 21:59:00,
2013-01-08 17:04:00,37.6,27.6,30.06,WSW,248,2.7,4.5,67,0.00,,,0.00,WUHU216HW,2013-01-08 22:04:00,
2013-01-08 17:09:00,37.1,27.2,30.06,West,270,1.8,3.4,67,0.00,,,0.00,WUHU216HW,2013-01-08 22:09:00,
2013-01-08 17:14:00,36.7,27.2,30.06,SSE,158,0.4,3.6,68,0.00,,,0.00,WUHU216HW,2013-01-08 22:14:00,
2013-01-08 17:19:00,36.4,27.2,30.06,SW,225,0.7,3.6,69,0.00,,,0.00,WUHU216HW,2013-01-08 22:19:00,
2013-01-08 17:24:00,35.8,26.7,30.06,SW,225,1.8,2.7,69,0.00,,,0.00,WUHU216HW,2013-01-08 22:24:00,
2013-01-08 17:29:00,35.6,26.8,30.06,WSW,248,1.1,2.2,70,0.00,,,0.00,WUHU216HW,2013-01-08 22:29:00,
2013-01-08 17:34:00,35.3,26.8,30.06,ENE,68,0.2,2.2,71,0.00,,,0.00,WUHU216HW,2013-01-08 22:34:00,
2013-01-08 17:39:00,34.9,26.5,30.06,SSW,203,0.4,1.1,71,0.00,,,0.00,WUHU216HW,2013-01-08 22:39:00,
2013-01-08 17:44:00,34.7,26.3,30.06,West,270,2.0,2.9,71,0.00,,,0.00,WUHU216HW,2013-01-08 22:44:00,
2013-01-08 17:49:00,34.6,26.4,30.06,NW,315,0.7,2.9,72,0.00,,,0.00,WUHU216HW,2013-01-08 22:49:00,
2013-01-08 17:54:00,34.4,26.2,30.06,SSW,203,0.2,2.5,72,0.00,,,0.00,WUHU216HW,2013-01-08 22:54:00,
2013-01-08 17:59:00,34.2,26.0,30.06,SSE,158,1.3,2.2,72,0.00,,,0.00,WUHU216HW,2013-01-08 22:59:00,
2013-01-08 18:04:00,33.8,25.7,30.06,SSE,158,0.2,1.8,72,0.00,,,0.00,WUHU216HW,2013-01-08 23:04:00,
2013-01-08 18:09:00,33.5,25.7,30.06,SSE,158,0.2,1.3,73,0.00,,,0.00,WUHU216HW,2013-01-08 23:09:00,
2013-01-08 18:14:00,33.3,25.5,30.06,ESE,113,0.4,1.3,73,0.00,,,0.00,WUHU216HW,2013-01-08 23:14:00,
2013-01-08 18:19:00,33.3,25.8,30.07,SW,225,1.8,1.8,74,0.00,,,0.00,WUHU216HW,2013-01-08 23:19:00,
2013-01-08 18:24:00,33.1,25.7,30.06,South,180,1.1,1.8,74,0.00,,,0.00,WUHU216HW,2013-01-08 23:24:00,
2013-01-08 18:29:00,33.1,26.0,30.06,SE,135,1.1,2.0,75,0.00,,,0.00,WUHU216HW,2013-01-08 23:29:00,
2013-01-08 18:34:00,32.9,25.8,30.06,SSE,158,0.4,2.0,75,0.00,,,0.00,WUHU216HW,2013-01-08 23:34:00,
2013-01-08 18:39:00,32.8,25.7,30.06,South,180,1.1,1.3,75,0.00,,,0.00,WUHU216HW,2013-01-08 23:39:00,
2013-01-08 18:44:00,32.8,26.0,30.05,SSW,203,0.0,1.8,76,0.00,,,0.00,WUHU216HW,2013-01-08 23:44:00,
2013-01-08 18:49:00,32.6,25.8,30.06,South,180,0.7,1.8,76,0.00,,,0.00,WUHU216HW,2013-01-08 23:49:00,
2013-01-08 18:54:00,32.2,25.5,30.05,WSW,248,0.4,2.5,76,0.00,,,0.00,WUHU216HW,2013-01-08 23:54:00,
2013-01-08 18:59:00,32.0,25.4,30.06,SW,225,0.9,2.5,76,0.00,,,0.00,WUHU216HW,2013-01-08 23:59:00,
2013-01-08 19:04:00,31.9,25.5,30.05,WSW,248,0.7,1.1,77,0.00,,,0.00,WUHU216HW,2013-01-09 00:04:00,
2013-01-08 19:09:00,31.7,25.3,30.05,South,180,2.5,2.5,77,0.00,,,0.00,WUHU216HW,2013-01-09 00:09:00,
2013-01-08 19:14:00,31.5,25.5,30.05,SW,225,0.7,2.5,78,0.00,,,0.00,WUHU216HW,2013-01-09 00:14:00,
2013-01-08 19:19:00,31.3,25.3,30.05,SSE,158,1.8,1.8,78,0.00,,,0.00,WUHU216HW,2013-01-09 00:19:00,
2013-01-08 19:24:00,31.1,25.1,30.06,SSE,158,0.4,1.8,78,0.00,,,0.00,WUHU216HW,2013-01-09 00:24:00,
2013-01-08 19:29:00,31.0,24.9,30.06,SSE,158,0.7,1.3,78,0.00,,,0.00,WUHU216HW,2013-01-09 00:29:00,
2013-01-08 19:34:00,30.8,24.8,30.06,SSE,158,0.0,1.6,78,0.00,,,0.00,WUHU216HW,2013-01-09 00:34:00,
2013-01-08 19:39:00,30.8,24.8,30.06,SSW,203,0.4,1.6,78,0.00,,,0.00,WUHU216HW,2013-01-09 00:39:00,
2013-01-08 19:44:00,30.6,24.8,30.06,West,270,1.1,1.1,79,0.00,,,0.00,WUHU216HW,2013-01-09 00:44:00,
2013-01-08 19:49:00,30.6,24.8,30.06,SSE,158,0.9,1.1,79,0.00,,,0.00,WUHU216HW,2013-01-09 00:49:00,
2013-01-08 19:54:00,30.4,24.7,30.06,SSE,158,0.0,1.6,79,0.00,,,0.00,WUHU216HW,2013-01-09 00:54:00,
2013-01-08 19:59:00,30.4,24.7,30.06,SSE,158,0.2,1.6,79,0.00,,,0.00,WUHU216HW,2013-01-09 00:59:00,
2013-01-08 20:04:00,30.2,24.5,30.06,SSE,158,0.0,1.1,79,0.00,,,0.00,WUHU216HW,2013-01-09 01:04:00,
2013-01-08 20:09:00,30.1,24.3,30.06,SSW,203,0.4,1.1,79,0.00,,,0.00,WUHU216HW,2013-01-09 01:09:00,
2013-01-08 20:14:00,29.9,24.5,30.06,SSE,158,1.1,1.1,80,0.00,,,0.00,WUHU216HW,2013-01-09 01:14:00,
2013-01-08 20:19:00,29.9,24.5,30.07,SE,135,0.4,1.1,80,0.00,,,0.00,WUHU216HW,2013-01-09 01:19:00,
2013-01-08 20:24:00,29.7,24.6,30.06,SSE,158,0.0,1.1,81,0.00,,,0.00,WUHU216HW,2013-01-09 01:24:00,
2013-01-08 20:29:00,29.7,24.6,30.06,SSE,158,0.4,1.1,81,0.00,,,0.00,WUHU216HW,2013-01-09 01:29:00,
2013-01-08 20:34:00,29.5,24.4,30.06,SSE,158,0.9,1.3,81,0.00,,,0.00,WUHU216HW,2013-01-09 01:34:00,
2013-01-08 20:39:00,29.5,24.4,30.05,SE,135,0.9,1.6,81,0.00,,,0.00,WUHU216HW,2013-01-09 01:39:00,
2013-01-08 20:44:00,29.7,24.6,30.05,SSW,203,0.0,1.6,81,0.00,,,0.00,WUHU216HW,2013-01-09 01:44:00,
2013-01-08 20:49:00,29.7,24.6,30.04,South,180,1.1,1.3,81,0.00,,,0.00,WUHU216HW,2013-01-09 01:49:00,
2013-01-08 20:54:00,29.7,24.8,30.04,SSE,158,1.1,1.1,82,0.00,,,0.00,WUHU216HW,2013-01-09 01:54:00,
2013-01-08 20:59:00,29.9,25.0,30.04,SSW,203,0.7,1.1,82,0.00,,,0.00,WUHU216HW,2013-01-09 01:59:00,
2013-01-08 21:04:00,29.9,25.0,30.04,SSE,158,0.0,1.1,82,0.00,,,0.00,WUHU216HW,2013-01-09 02:04:00,
2013-01-08 21:09:00,29.9,25.0,30.04,South,180,2.5,2.5,82,0.00,,,0.00,WUHU216HW,2013-01-09 02:09:00,
2013-01-08 21:14:00,29.7,24.8,30.03,South,180,0.0,2.5,82,0.00,,,0.00,WUHU216HW,2013-01-09 02:14:00,
2013-01-08 21:19:00,29.5,24.7,30.05,South,180,0.0,0.2,82,0.00,,,0.00,WUHU216HW,2013-01-09 02:19:00,
2013-01-08 21:24:00,29.5,25.0,30.04,SW,225,0.2,0.4,83,0.00,,,0.00,WUHU216HW,2013-01-09 02:24:00,
2013-01-08 21:29:00,29.3,24.9,30.04,SW,225,0.0,0.4,83,0.00,,,0.00,WUHU216HW,2013-01-09 02:29:00,
2013-01-08 21:34:00,29.3,24.9,30.03,WSW,248,0.7,1.1,83,0.00,,,0.00,WUHU216HW,2013-01-09 02:34:00,
2013-01-08 21:39:00,29.2,24.7,30.03,South,180,0.7,1.1,83,0.00,,,0.00,WUHU216HW,2013-01-09 02:39:00,
2013-01-08 21:44:00,29.3,25.1,30.03,WSW,248,0.4,0.7,84,0.00,,,0.00,WUHU216HW,2013-01-09 02:44:00,
2013-01-08 21:49:00,29.3,25.1,30.04,NW,315,0.4,0.7,84,0.00,,,0.00,WUHU216HW,2013-01-09 02:49:00,
2013-01-08 21:54:00,29.7,25.5,30.03,SSE,158,0.4,1.1,84,0.00,,,0.00,WUHU216HW,2013-01-09 02:54:00,
2013-01-08 21:59:00,29.9,25.7,30.03,WSW,248,0.4,2.0,84,0.00,,,0.00,WUHU216HW,2013-01-09 02:59:00,
2013-01-08 22:04:00,29.9,25.4,30.03,WSW,248,0.0,2.0,83,0.00,,,0.00,WUHU216HW,2013-01-09 03:04:00,
2013-01-08 22:09:00,29.7,25.2,30.03,SW,225,0.0,1.6,83,0.00,,,0.00,WUHU216HW,2013-01-09 03:09:00,
2013-01-08 22:14:00,29.5,25.3,30.03,SSW,203,0.7,1.6,84,0.00,,,0.00,WUHU216HW,2013-01-09 03:14:00,
2013-01-08 22:19:00,29.7,25.5,30.04,SE,135,0.2,1.6,84,0.00,,,0.00,WUHU216HW,2013-01-09 03:19:00,
2013-01-08 22:24:00,29.5,25.3,30.03,WSW,248,0.0,1.3,84,0.00,,,0.00,WUHU216HW,2013-01-09 03:24:00,
2013-01-08 22:29:00,29.5,25.3,30.03,SE,135,0.4,0.7,84,0.00,,,0.00,WUHU216HW,2013-01-09 03:29:00,
2013-01-08 22:34:00,29.5,25.3,30.02,South,180,0.0,0.9,84,0.00,,,0.00,WUHU216HW,2013-01-09 03:34:00,
2013-01-08 22:39:00,29.5,25.3,30.02,South,180,0.0,0.9,84,0.00,,,0.00,WUHU216HW,2013-01-09 03:39:00,
2013-01-08 22:44:00,29.3,25.1,30.02,SSE,158,0.0,0.4,84,0.00,,,0.00,WUHU216HW,2013-01-09 03:44:00,
2013-01-08 22:49:00,29.2,24.9,30.03,SSE,158,0.4,0.4,84,0.00,,,0.00,WUHU216HW,2013-01-09 03:49:00,
2013-01-08 22:54:00,29.2,24.9,30.03,South,180,0.4,0.4,84,0.00,,,0.00,WUHU216HW,2013-01-09 03:54:00,
2013-01-08 22:59:00,29.2,25.2,30.03,SSE,158,0.4,1.3,85,0.00,,,0.00,WUHU216HW,2013-01-09 03:59:00,
2013-01-08 23:04:00,29.3,25.4,30.03,WNW,293,0.2,2.7,85,0.00,,,0.00,WUHU216HW,2013-01-09 04:04:00,
2013-01-08 23:09:00,29.5,25.6,30.02,SSE,158,0.4,2.7,85,0.00,,,0.00,WUHU216HW,2013-01-09 04:09:00,
2013-01-08 23:14:00,29.7,25.7,30.02,SSE,158,1.8,2.0,85,0.00,,,0.00,WUHU216HW,2013-01-09 04:14:00,
2013-01-08 23:19:00,29.9,25.9,30.02,WSW,248,0.4,1.8,85,0.00,,,0.00,WUHU216HW,2013-01-09 04:19:00,
2013-01-08 23:24:00,29.9,25.9,30.02,SE,135,2.2,4.0,85,0.00,,,0.00,WUHU216HW,2013-01-09 04:24:00,
2013-01-08 23:29:00,30.1,26.1,30.02,SSE,158,0.0,4.0,85,0.00,,,0.00,WUHU216HW,2013-01-09 04:29:00,
2013-01-08 23:34:00,30.1,26.1,30.01,SSE,158,1.3,3.4,85,0.00,,,0.00,WUHU216HW,2013-01-09 04:34:00,
2013-01-08 23:39:00,30.1,26.1,30.01,WSW,248,0.2,1.3,85,0.00,,,0.00,WUHU216HW,2013-01-09 04:39:00,
2013-01-08 23:44:00,29.9,25.9,30.01,SW,225,1.1,1.3,85,0.00,,,0.00,WUHU216HW,2013-01-09 04:44:00,
2013-01-08 23:49:00,29.9,25.9,30.01,WSW,248,0.4,1.8,85,0.00,,,0.00,WUHU216HW,2013-01-09 04:49:00,
2013-01-08 23:54:00,29.9,25.9,30.01,WSW,248,1.1,1.8,85,0.00,,,0.00,WUHU216HW,2013-01-09 04:54:00,
2013-01-08 23:59:00,29.9,25.9,30.01,WSW,248,0.4,1.1,85,0.00,,,0.00,WUHU216HW,2013-01-09 04:59:00,